ORBCOMM-X [-]

Last updated on Fri Dec 29 2023 00:02:53 GMT+0000 (Coordinated Universal Time)

1 21576U 91050C 23362.18357245 .00000562 00000+0 18349-3 0 9997 2 21576 98.4136 67.0276 0003935 25.5458 334.5925 14.42307325704903
UTC large
Height (km)
Speed (km/s)
/
Latitude / Longitude
Inclination (degrees)
Orbital Period (minutes)
Azimuth
Elevation
Range (km)
Doppler Factor

Next 0 passes for location: London (51.5072 / 0.1276)

Sorry there are no passes over London.